Buoy 46562

sailwx.info

Track history (hours):
 
Tides and Currents Weather Stations Pressure Air Temp Water Temp Dewpoint Dewpoint Depression Visibility Wind Speed Wind Dir Waves Ship Positions

Drifting buoy 46562

Last reported at 2014-Oct-21 12:00 UTC. Time now 2014-Oct-21 13:38 UTC.
Position N 55°38' W 154°13'.

Water temperature 9.0 ° C

Date/timePositionNaut miles runAvg speedWind from/ knotsBaromVisibWave heightAir tempDewpointWater temp
2014-Oct-21 12:00N 55°38' W 154°13'0 0.0 9.0
2014-Oct-21 07:00N 55°38' W 154°13'1 1.0 9.0
2014-Oct-21 06:00N 55°38' W 154°12'1 0.5 9.0
2014-Oct-21 05:00N 55°38' W 154°11'1 0.7 9.0
2014-Oct-21 04:00N 55°38' W 154°09'0 0.0 9.0
2014-Oct-21 03:00N 55°38' W 154°09'0 0.2 9.0
2014-Oct-21 02:00N 55°38' W 154°09'0 0.3 9.1
2014-Oct-21 01:00N 55°37' W 154°10'1 0.9 9.1
2014-Oct-21 00:00N 55°38' W 154°08'2 1.1 9.1
2014-Oct-20 22:00N 55°39' W 154°04'1 0.9 9.1
2014-Oct-20 21:00N 55°39' W 154°03'1 0.9 9.1
2014-Oct-20 20:00N 55°40' W 154°04'2 1.5 9.2
2014-Oct-20 19:00N 55°41' W 154°03'0 0.2 9.2
2014-Oct-20 17:00N 55°42' W 154°03'0 0.4 9.3
2014-Oct-20 16:00N 55°42' W 154°03'1 0.7 9.2
2014-Oct-20 15:00N 55°42' W 154°02'0 0.5 9.2
2014-Oct-20 14:00N 55°43' W 154°01'0 0.0 9.2
2014-Oct-20 13:00N 55°43' W 154°01'2 2.1 9.2
2014-Oct-20 12:00N 55°44' W 153°59'2 2.0 9.2
2014-Oct-20 11:00N 55°43' W 154°01'2 2.0 9.2
2014-Oct-20 10:00N 55°44' W 153°59'0 0.0 9.2
2014-Oct-20 09:00N 55°44' W 153°59'3 0.9 9.4
2014-Oct-20 05:00N 55°46' W 153°54'1 1.1 9.6
2014-Oct-20 04:00N 55°46' W 153°55'0 0.0 9.5
2014-Oct-20 03:00N 55°46' W 153°55'1 0.9 9.5
2014-Oct-20 02:00N 55°47' W 153°55'0 0.1 9.6
2014-Oct-20 01:00N 55°47' W 153°55'1 0.6 9.6
2014-Oct-20 00:00N 55°48' W 153°55'1 0.6 9.6
2014-Oct-19 22:00N 55°48' W 153°53'1 1.2 9.4
2014-Oct-19 21:00N 55°49' W 153°52'1 0.7 9.4
2014-Oct-19 20:00N 55°50' W 153°51'3 1.5 9.3
2014-Oct-19 18:00N 55°52' W 153°47'0 0.0 9.2
2014-Oct-19 17:00N 55°52' W 153°47'1 1.3 9.2
2014-Oct-19 16:00N 55°52' W 153°45'1 0.6 9.2
2014-Oct-19 15:00N 55°53' W 153°44'1 0.6 9.2
2014-Oct-19 14:00N 55°53' W 153°44'1 1.4 8.9
2014-Oct-19 13:00N 55°55' W 153°43'1 1.5 8.9
2014-Oct-19 12:00N 55°56' W 153°42'3 1.7 8.9
2014-Oct-19 10:00N 55°59' W 153°38'2 0.5 9.0
2014-Oct-19 07:00N 55°60' W 153°36'1 0.5 8.8
2014-Oct-19 05:00N 56°00' W 153°34'1 1.3 8.9
2014-Oct-19 04:00N 56°02' W 153°35'0 0.0 9.1
2014-Oct-19 03:00N 56°02' W 153°35'2 1.0 9.1
2014-Oct-19 01:00N 56°04' W 153°33'0 0.2 9.2
2014-Oct-19 00:00N 56°04' W 153°34'1 0.8 9.2
2014-Oct-18 23:00N 56°04' W 153°33'0 0.0 9.2
2014-Oct-18 22:00N 56°04' W 153°33'1 1.1 9.2
2014-Oct-18 21:00N 56°05' W 153°31'1 1.2 9.2
2014-Oct-18 20:00N 56°05' W 153°29'0 0.0 9.2
2014-Oct-18 18:00N 56°05' W 153°29'2 1.6 9.3
2014-Oct-18 17:00N 56°06' W 153°27'0 0.1 9.3
2014-Oct-18 16:00N 56°06' W 153°27'1 0.8 9.3
2014-Oct-18 15:00N 56°06' W 153°26'1 1.1 9.3
2014-Oct-18 14:00N 56°07' W 153°24'1 0.7 9.3
2014-Oct-18 12:00N 56°07' W 153°21'0 0.4 9.3
2014-Oct-18 11:00N 56°07' W 153°22'0 0.0 9.3
2014-Oct-18 10:00N 56°07' W 153°22'2 2.5 9.3
2014-Oct-18 09:00N 56°09' W 153°18'2 0.9 9.2
2014-Oct-18 07:00N 56°09' W 153°15'1 0.4 8.7
2014-Oct-18 05:00N 56°10' W 153°14'1 0.4 8.8
2014-Oct-18 02:00N 56°10' W 153°12'1 0.9 8.4
2014-Oct-18 01:00N 56°10' W 153°10'2 1.7 8.4
2014-Oct-18 00:00N 56°10' W 153°08'1 0.7 8.4
2014-Oct-17 22:00N 56°11' W 153°05'0 0.2 8.3
2014-Oct-17 21:00N 56°11' W 153°05'3 2.7 8.4
2014-Oct-17 20:00N 56°10' W 153°01'0 0.0 8.5
2014-Oct-17 18:00N 56°10' W 153°01'2 1.0 8.5
2014-Oct-17 16:00N 56°10' W 152°57'0 0.3 8.5
2014-Oct-17 15:00N 56°10' W 152°57'1 0.8 8.5
2014-Oct-17 14:00N 56°10' W 152°56'0 0.4 8.5
2014-Oct-17 13:00N 56°10' W 152°56'2 1.6 8.5
2014-Oct-17 12:00N 56°10' W 152°53'0 0.1 8.5
2014-Oct-17 11:00N 56°10' W 152°53'2 0.6 8.7
2014-Oct-17 08:00N 56°09' W 152°50'3 2.5 8.8
2014-Oct-17 07:00N 56°10' W 152°46'0 0.0 8.8
2014-Oct-17 06:00N 56°10' W 152°46'0 0.3 8.8
2014-Oct-17 05:00N 56°09' W 152°46'2 0.6 8.9
2014-Oct-17 02:00N 56°09' W 152°43'1 1.0 9.1
2014-Oct-17 01:00N 56°08' W 152°42'1 0.9 9.2
2014-Oct-17 00:00N 56°08' W 152°40'1 0.6 9.3
2014-Oct-16 23:00N 56°08' W 152°39'0 0.2 9.3
2014-Oct-16 21:00N 56°08' W 152°38'0 0.2 9.4
2014-Oct-16 19:00N 56°08' W 152°38'4 0.5 9.4
2014-Oct-16 12:00N 56°07' W 152°32'5 1.0 9.5
2014-Oct-16 07:00N 56°11' W 152°27'0 0.1 9.3
2014-Oct-16 04:00N 56°11' W 152°27'0 0.2 9.4
2014-Oct-16 03:00N 56°11' W 152°27'1 0.4 9.3
2014-Oct-16 01:00N 56°12' W 152°26'2 0.5 9.2
2014-Oct-15 21:00N 56°14' W 152°24'3 1.1 9.1
2014-Oct-15 18:00N 56°17' W 152°23'0 0.3 8.9
2014-Oct-15 17:00N 56°17' W 152°22'0 0.5 9.0
2014-Oct-15 16:00N 56°17' W 152°23'1 0.9 9.0
2014-Oct-15 15:00N 56°18' W 152°22'1 0.6 9.0
2014-Oct-15 14:00N 56°19' W 152°23'0 0.3 9.0
2014-Oct-15 13:00N 56°19' W 152°22'1 0.3 9.0
2014-Oct-15 11:00N 56°19' W 152°21'5 1.3 8.7
2014-Oct-15 07:00N 56°21' W 152°13'1 1.2 8.7
2014-Oct-15 06:00N 56°22' W 152°11'0 0.0 8.7
2014-Oct-15 05:00N 56°22' W 152°11'3 1.3 8.7
2014-Oct-15 03:00N 56°25' W 152°10'0 0.0 8.7
2014-Oct-15 02:00N 56°25' W 152°10'1 0.9 8.7
2014-Oct-15 01:00N 56°26' W 152°09'0 0.0 8.8
2014-Oct-15 00:00N 56°26' W 152°09'0 0.3 8.9
2014-Oct-14 23:00N 56°25' W 152°10'0 0.2 8.9
2014-Oct-14 22:00N 56°25' W 152°09'3 1.7 8.8
2014-Oct-14 20:00N 56°25' W 152°03'4 0.9 8.7
2014-Oct-14 15:00N 56°29' W 151°58'0 0.2 8.6
2014-Oct-14 14:00N 56°29' W 151°58'2 2.1 8.6
2014-Oct-14 13:00N 56°31' W 151°57'1 0.6 8.6
2014-Oct-14 11:00N 56°31' W 151°59'4 0.9 8.6
2014-Oct-14 07:00N 56°34' W 151°56'0 0.3 8.6
2014-Oct-14 06:00N 56°34' W 151°55'0 0.4 8.7
2014-Oct-14 05:00N 56°34' W 151°55'4 2.2 8.6
2014-Oct-14 03:00N 56°37' W 151°49'3 1.3 8.7
2014-Oct-14 01:00N 56°39' W 151°46'1 0.7 8.6
2014-Oct-14 00:00N 56°40' W 151°46'1 0.7 8.5
2014-Oct-13 23:00N 56°41' W 151°46'2 2.4 8.5
2014-Oct-13 22:00N 56°43' W 151°45'3 1.0 8.5
2014-Oct-13 19:00N 56°46' W 151°44'0 0.2 8.4
2014-Oct-13 18:00N 56°46' W 151°43'0 0.0 8.4
2014-Oct-13 17:00N 56°46' W 151°43'1 0.4 8.3
2014-Oct-13 15:00N 56°45' W 151°42'2 1.7 8.3
2014-Oct-13 14:00N 56°46' W 151°39'1010.3 8.3
2014-Oct-13 13:00N 56°52' W 151°24'0 0.0 8.3
2014-Oct-13 12:00N 56°52' W 151°24'0 0.0 8.5
2014-Oct-13 09:00N 56°52' W 151°24'4 1.2 8.4
2014-Oct-13 06:00N 56°55' W 151°23'4 3.9 8.5
2014-Oct-13 05:00N 56°58' W 151°27'0 0.0 8.3
2014-Oct-13 03:00N 56°58' W 151°27'2 1.0 8.3
2014-Oct-13 01:00N 57°00' W 151°29'1 0.8 8.3
2014-Oct-13 00:00N 57°01' W 151°29'2 2.1 8.5
2014-Oct-12 23:00N 57°03' W 151°27'0 0.4 8.6
2014-Oct-12 22:00N 57°03' W 151°27'2 1.8 8.7
2014-Oct-12 21:00N 57°05' W 151°25'2 2.4 8.8
2014-Oct-12 20:00N 57°07' W 151°26'1 1.0 8.8
2014-Oct-12 19:00N 57°08' W 151°25'2 2.2 8.8
2014-Oct-12 18:00N 57°10' W 151°25'0 0.0 8.8
2014-Oct-12 17:00N 57°10' W 151°25'0 0.0 8.8
2014-Oct-12 16:00N 57°10' W 151°25'1 0.9 8.8
2014-Oct-12 15:00N 57°11' W 151°27'0 0.1 8.8
2014-Oct-12 14:00N 57°11' W 151°26'0 0.2 8.8
2014-Oct-12 13:00N 57°11' W 151°26'0 0.4 8.8
2014-Oct-12 12:00N 57°10' W 151°25'3 1.6 8.9
2014-Oct-12 10:00N 57°13' W 151°22'0 0.0 8.9
2014-Oct-12 08:00N 57°13' W 151°22'2 1.6 8.9
2014-Oct-12 07:00N 57°14' W 151°19'2 1.6 8.9
2014-Oct-12 06:00N 57°16' W 151°19'3 2.9 8.9
2014-Oct-12 05:00N 57°18' W 151°22'3 2.6 8.9
2014-Oct-12 04:00N 57°19' W 151°26'0 0.0 8.9
2014-Oct-12 03:00N 57°19' W 151°26'1 1.0 8.9
2014-Oct-12 02:00N 57°19' W 151°28'0 0.0 8.9
2014-Oct-12 01:00N 57°19' W 151°28'1 0.9 8.9
2014-Oct-12 00:00N 57°18' W 151°29'1 1.0 8.9
2014-Oct-11 23:00N 57°18' W 151°31'1 0.7 8.9
2014-Oct-11 22:00N 57°17' W 151°31'0 0.3 8.8
2014-Oct-11 21:00N 57°17' W 151°31'0 0.4 8.8
2014-Oct-11 20:00N 57°16' W 151°32'0 0.0 8.8
2014-Oct-11 19:00N 57°16' W 151°32'1 1.4 8.8
2014-Oct-11 18:00N 57°17' W 151°33'0 0.0 8.8
2014-Oct-11 17:00N 57°17' W 151°33'1 1.3 8.8
2014-Oct-11 16:00N 57°18' W 151°36'2 0.8 8.8
2014-Oct-11 14:00N 57°18' W 151°39'2 2.3 8.8
2014-Oct-11 13:00N 57°16' W 151°42'0 0.0 8.8
2014-Oct-11 12:00N 57°16' W 151°42'   8.9
Track history (hours):
 
Tides and Currents Weather Stations Pressure Air Temp Water Temp Dewpoint Dewpoint Depression Visibility Wind Speed Wind Dir Waves Ship Positions

Drifting buoy 46562

Last reported at 2014-Oct-21 12:00 UTC. Time now 2014-Oct-21 13:38 UTC.
Position N 55°38' W 154°13'.

Water temperature 9.0 ° C

Date/timePositionNaut miles runAvg speedWind from/ knotsBaromVisibWave heightAir tempDewpointWater temp
2014-Oct-21 12:00N 55°38' W 154°13'0 0.0 9.0
2014-Oct-21 07:00N 55°38' W 154°13'1 1.0 9.0
2014-Oct-21 06:00N 55°38' W 154°12'1 0.5 9.0
2014-Oct-21 05:00N 55°38' W 154°11'1 0.7 9.0
2014-Oct-21 04:00N 55°38' W 154°09'0 0.0 9.0
2014-Oct-21 03:00N 55°38' W 154°09'0 0.2 9.0
2014-Oct-21 02:00N 55°38' W 154°09'0 0.3 9.1
2014-Oct-21 01:00N 55°37' W 154°10'1 0.9 9.1
2014-Oct-21 00:00N 55°38' W 154°08'2 1.1 9.1
2014-Oct-20 22:00N 55°39' W 154°04'1 0.9 9.1
2014-Oct-20 21:00N 55°39' W 154°03'1 0.9 9.1
2014-Oct-20 20:00N 55°40' W 154°04'2 1.5 9.2
2014-Oct-20 19:00N 55°41' W 154°03'0 0.2 9.2
2014-Oct-20 17:00N 55°42' W 154°03'0 0.4 9.3
2014-Oct-20 16:00N 55°42' W 154°03'1 0.7 9.2
2014-Oct-20 15:00N 55°42' W 154°02'0 0.5 9.2
2014-Oct-20 14:00N 55°43' W 154°01'0 0.0 9.2
2014-Oct-20 13:00N 55°43' W 154°01'2 2.1 9.2
2014-Oct-20 12:00N 55°44' W 153°59'2 2.0 9.2
2014-Oct-20 11:00N 55°43' W 154°01'2 2.0 9.2
2014-Oct-20 10:00N 55°44' W 153°59'0 0.0 9.2
2014-Oct-20 09:00N 55°44' W 153°59'3 0.9 9.4
2014-Oct-20 05:00N 55°46' W 153°54'1 1.1 9.6
2014-Oct-20 04:00N 55°46' W 153°55'0 0.0 9.5
2014-Oct-20 03:00N 55°46' W 153°55'1 0.9 9.5
2014-Oct-20 02:00N 55°47' W 153°55'0 0.1 9.6
2014-Oct-20 01:00N 55°47' W 153°55'1 0.6 9.6
2014-Oct-20 00:00N 55°48' W 153°55'1 0.6 9.6
2014-Oct-19 22:00N 55°48' W 153°53'1 1.2 9.4
2014-Oct-19 21:00N 55°49' W 153°52'1 0.7 9.4
2014-Oct-19 20:00N 55°50' W 153°51'3 1.5 9.3
2014-Oct-19 18:00N 55°52' W 153°47'0 0.0 9.2
2014-Oct-19 17:00N 55°52' W 153°47'1 1.3 9.2
2014-Oct-19 16:00N 55°52' W 153°45'1 0.6 9.2
2014-Oct-19 15:00N 55°53' W 153°44'1 0.6 9.2
2014-Oct-19 14:00N 55°53' W 153°44'1 1.4 8.9
2014-Oct-19 13:00N 55°55' W 153°43'1 1.5 8.9
2014-Oct-19 12:00N 55°56' W 153°42'3 1.7 8.9
2014-Oct-19 10:00N 55°59' W 153°38'2 0.5 9.0
2014-Oct-19 07:00N 55°60' W 153°36'1 0.5 8.8
2014-Oct-19 05:00N 56°00' W 153°34'1 1.3 8.9
2014-Oct-19 04:00N 56°02' W 153°35'0 0.0 9.1
2014-Oct-19 03:00N 56°02' W 153°35'2 1.0 9.1
2014-Oct-19 01:00N 56°04' W 153°33'0 0.2 9.2
2014-Oct-19 00:00N 56°04' W 153°34'1 0.8 9.2
2014-Oct-18 23:00N 56°04' W 153°33'0 0.0 9.2
2014-Oct-18 22:00N 56°04' W 153°33'1 1.1 9.2
2014-Oct-18 21:00N 56°05' W 153°31'1 1.2 9.2
2014-Oct-18 20:00N 56°05' W 153°29'0 0.0 9.2
2014-Oct-18 18:00N 56°05' W 153°29'2 1.6 9.3
2014-Oct-18 17:00N 56°06' W 153°27'0 0.1 9.3
2014-Oct-18 16:00N 56°06' W 153°27'1 0.8 9.3
2014-Oct-18 15:00N 56°06' W 153°26'1 1.1 9.3
2014-Oct-18 14:00N 56°07' W 153°24'1 0.7 9.3
2014-Oct-18 12:00N 56°07' W 153°21'0 0.4 9.3
2014-Oct-18 11:00N 56°07' W 153°22'0 0.0 9.3
2014-Oct-18 10:00N 56°07' W 153°22'2 2.5 9.3
2014-Oct-18 09:00N 56°09' W 153°18'2 0.9 9.2
2014-Oct-18 07:00N 56°09' W 153°15'1 0.4 8.7
2014-Oct-18 05:00N 56°10' W 153°14'1 0.4 8.8
2014-Oct-18 02:00N 56°10' W 153°12'1 0.9 8.4
2014-Oct-18 01:00N 56°10' W 153°10'2 1.7 8.4
2014-Oct-18 00:00N 56°10' W 153°08'1 0.7 8.4
2014-Oct-17 22:00N 56°11' W 153°05'0 0.2 8.3
2014-Oct-17 21:00N 56°11' W 153°05'3 2.7 8.4
2014-Oct-17 20:00N 56°10' W 153°01'0 0.0 8.5
2014-Oct-17 18:00N 56°10' W 153°01'2 1.0 8.5
2014-Oct-17 16:00N 56°10' W 152°57'0 0.3 8.5
2014-Oct-17 15:00N 56°10' W 152°57'1 0.8 8.5
2014-Oct-17 14:00N 56°10' W 152°56'0 0.4 8.5
2014-Oct-17 13:00N 56°10' W 152°56'2 1.6 8.5
2014-Oct-17 12:00N 56°10' W 152°53'0 0.1 8.5
2014-Oct-17 11:00N 56°10' W 152°53'2 0.6 8.7
2014-Oct-17 08:00N 56°09' W 152°50'3 2.5 8.8
2014-Oct-17 07:00N 56°10' W 152°46'0 0.0 8.8
2014-Oct-17 06:00N 56°10' W 152°46'0 0.3 8.8
2014-Oct-17 05:00N 56°09' W 152°46'2 0.6 8.9
2014-Oct-17 02:00N 56°09' W 152°43'1 1.0 9.1
2014-Oct-17 01:00N 56°08' W 152°42'1 0.9 9.2
2014-Oct-17 00:00N 56°08' W 152°40'1 0.6 9.3
2014-Oct-16 23:00N 56°08' W 152°39'0 0.2 9.3
2014-Oct-16 21:00N 56°08' W 152°38'0 0.2 9.4
2014-Oct-16 19:00N 56°08' W 152°38'4 0.5 9.4
2014-Oct-16 12:00N 56°07' W 152°32'5 1.0 9.5
2014-Oct-16 07:00N 56°11' W 152°27'0 0.1 9.3
2014-Oct-16 04:00N 56°11' W 152°27'0 0.2 9.4
2014-Oct-16 03:00N 56°11' W 152°27'1 0.4 9.3
2014-Oct-16 01:00N 56°12' W 152°26'2 0.5 9.2
2014-Oct-15 21:00N 56°14' W 152°24'3 1.1 9.1
2014-Oct-15 18:00N 56°17' W 152°23'0 0.3 8.9
2014-Oct-15 17:00N 56°17' W 152°22'0 0.5 9.0
2014-Oct-15 16:00N 56°17' W 152°23'1 0.9 9.0
2014-Oct-15 15:00N 56°18' W 152°22'1 0.6 9.0
2014-Oct-15 14:00N 56°19' W 152°23'0 0.3 9.0
2014-Oct-15 13:00N 56°19' W 152°22'1 0.3 9.0
2014-Oct-15 11:00N 56°19' W 152°21'5 1.3 8.7
2014-Oct-15 07:00N 56°21' W 152°13'1 1.2 8.7
2014-Oct-15 06:00N 56°22' W 152°11'0 0.0 8.7
2014-Oct-15 05:00N 56°22' W 152°11'3 1.3 8.7
2014-Oct-15 03:00N 56°25' W 152°10'0 0.0 8.7
2014-Oct-15 02:00N 56°25' W 152°10'1 0.9 8.7
2014-Oct-15 01:00N 56°26' W 152°09'0 0.0 8.8
2014-Oct-15 00:00N 56°26' W 152°09'0 0.3 8.9
2014-Oct-14 23:00N 56°25' W 152°10'0 0.2 8.9
2014-Oct-14 22:00N 56°25' W 152°09'3 1.7 8.8
2014-Oct-14 20:00N 56°25' W 152°03'4 0.9 8.7
2014-Oct-14 15:00N 56°29' W 151°58'0 0.2 8.6
2014-Oct-14 14:00N 56°29' W 151°58'2 2.1 8.6
2014-Oct-14 13:00N 56°31' W 151°57'1 0.6 8.6
2014-Oct-14 11:00N 56°31' W 151°59'4 0.9 8.6
2014-Oct-14 07:00N 56°34' W 151°56'0 0.3 8.6
2014-Oct-14 06:00N 56°34' W 151°55'0 0.4 8.7
2014-Oct-14 05:00N 56°34' W 151°55'4 2.2 8.6
2014-Oct-14 03:00N 56°37' W 151°49'3 1.3 8.7
2014-Oct-14 01:00N 56°39' W 151°46'1 0.7 8.6
2014-Oct-14 00:00N 56°40' W 151°46'1 0.7 8.5
2014-Oct-13 23:00N 56°41' W 151°46'2 2.4 8.5
2014-Oct-13 22:00N 56°43' W 151°45'3 1.0 8.5
2014-Oct-13 19:00N 56°46' W 151°44'0 0.2 8.4
2014-Oct-13 18:00N 56°46' W 151°43'0 0.0 8.4
2014-Oct-13 17:00N 56°46' W 151°43'1 0.4 8.3
2014-Oct-13 15:00N 56°45' W 151°42'2 1.7 8.3
2014-Oct-13 14:00N 56°46' W 151°39'1010.3 8.3
2014-Oct-13 13:00N 56°52' W 151°24'0 0.0 8.3
2014-Oct-13 12:00N 56°52' W 151°24'0 0.0 8.5
2014-Oct-13 09:00N 56°52' W 151°24'4 1.2 8.4
2014-Oct-13 06:00N 56°55' W 151°23'4 3.9 8.5
2014-Oct-13 05:00N 56°58' W 151°27'0 0.0 8.3
2014-Oct-13 03:00N 56°58' W 151°27'2 1.0 8.3
2014-Oct-13 01:00N 57°00' W 151°29'1 0.8 8.3
2014-Oct-13 00:00N 57°01' W 151°29'2 2.1 8.5
2014-Oct-12 23:00N 57°03' W 151°27'0 0.4 8.6
2014-Oct-12 22:00N 57°03' W 151°27'2 1.8 8.7
2014-Oct-12 21:00N 57°05' W 151°25'2 2.4 8.8
2014-Oct-12 20:00N 57°07' W 151°26'1 1.0 8.8
2014-Oct-12 19:00N 57°08' W 151°25'2 2.2 8.8
2014-Oct-12 18:00N 57°10' W 151°25'0 0.0 8.8
2014-Oct-12 17:00N 57°10' W 151°25'0 0.0 8.8
2014-Oct-12 16:00N 57°10' W 151°25'1 0.9 8.8
2014-Oct-12 15:00N 57°11' W 151°27'0 0.1 8.8
2014-Oct-12 14:00N 57°11' W 151°26'0 0.2 8.8
2014-Oct-12 13:00N 57°11' W 151°26'0 0.4 8.8
2014-Oct-12 12:00N 57°10' W 151°25'3 1.6 8.9
2014-Oct-12 10:00N 57°13' W 151°22'0 0.0 8.9
2014-Oct-12 08:00N 57°13' W 151°22'2 1.6 8.9
2014-Oct-12 07:00N 57°14' W 151°19'2 1.6 8.9
2014-Oct-12 06:00N 57°16' W 151°19'3 2.9 8.9
2014-Oct-12 05:00N 57°18' W 151°22'3 2.6 8.9
2014-Oct-12 04:00N 57°19' W 151°26'0 0.0 8.9
2014-Oct-12 03:00N 57°19' W 151°26'1 1.0 8.9
2014-Oct-12 02:00N 57°19' W 151°28'0 0.0 8.9
2014-Oct-12 01:00N 57°19' W 151°28'1 0.9 8.9
2014-Oct-12 00:00N 57°18' W 151°29'1 1.0 8.9
2014-Oct-11 23:00N 57°18' W 151°31'1 0.7 8.9
2014-Oct-11 22:00N 57°17' W 151°31'0 0.3 8.8
2014-Oct-11 21:00N 57°17' W 151°31'0 0.4 8.8
2014-Oct-11 20:00N 57°16' W 151°32'0 0.0 8.8
2014-Oct-11 19:00N 57°16' W 151°32'1 1.4 8.8
2014-Oct-11 18:00N 57°17' W 151°33'0 0.0 8.8
2014-Oct-11 17:00N 57°17' W 151°33'1 1.3 8.8
2014-Oct-11 16:00N 57°18' W 151°36'2 0.8 8.8
2014-Oct-11 14:00N 57°18' W 151°39'2 2.3 8.8
2014-Oct-11 13:00N 57°16' W 151°42'0 0.0 8.8
2014-Oct-11 12:00N 57°16' W 151°42'   8.9

Dump ship's entire track history